Time,TemperatureF,DewpointF,PressureIn,WindDirection,WindDirectionDegrees,WindSpeedMPH,WindSpeedGustMPH,Humidity,HourlyPrecipIn,Conditions,Clouds,dailyrainin,SoftwareType,DateUTC
2013-04-01 00:01:00,49.1,35.0,29.87,West,277,8.0,8.0,58,0.00,,,0.00,LWC V2.00 B2112,2013-04-01 07:01:00,
2013-04-01 00:06:00,48.9,34.8,29.87,WNW,287,6.0,8.0,58,0.00,,,0.00,LWC V2.00 B2112,2013-04-01 07:06:00,
2013-04-01 00:11:00,48.6,35.3,29.87,West,281,2.0,7.0,60,0.00,,,0.00,LWC V2.00 B2112,2013-04-01 07:11:00,
2013-04-01 00:16:00,48.0,36.0,29.87,West,280,1.0,8.0,63,0.00,,,0.00,LWC V2.00 B2112,2013-04-01 07:16:00,
2013-04-01 00:21:00,47.9,35.5,29.87,WNW,287,6.0,8.0,62,0.00,,,0.00,LWC V2.00 B2112,2013-04-01 07:21:00,
2013-04-01 00:26:00,48.2,35.4,29.87,NW,322,8.0,8.0,61,0.00,,,0.00,LWC V2.00 B2112,2013-04-01 07:26:00,
2013-04-01 00:31:00,48.0,35.6,29.87,West,271,2.0,4.0,62,0.00,,,0.00,LWC V2.00 B2112,2013-04-01 07:31:00,
2013-04-01 00:36:00,47.9,35.5,29.87,West,270,8.0,8.0,62,0.00,,,0.00,LWC V2.00 B2112,2013-04-01 07:36:00,
2013-04-01 00:41:00,47.4,36.2,29.87,West,280,6.0,7.0,65,0.00,,,0.00,LWC V2.00 B2112,2013-04-01 07:41:00,
2013-04-01 00:46:00,47.9,35.5,29.87,WNW,295,8.0,10.0,62,0.00,,,0.00,LWC V2.00 B2112,2013-04-01 07:46:00,
2013-04-01 00:51:00,47.4,35.0,29.87,WNW,289,6.0,8.0,62,0.00,,,0.00,LWC V2.00 B2112,2013-04-01 07:51:00,
2013-04-01 00:56:00,47.3,35.3,29.87,West,281,6.0,8.0,63,0.00,,,0.00,LWC V2.00 B2112,2013-04-01 07:56:00,
2013-04-01 01:01:00,47.3,35.3,29.88,West,271,4.0,8.0,63,0.00,,,0.00,LWC V2.00 B2112,2013-04-01 08:01:00,
2013-04-01 01:06:00,47.0,35.5,29.88,West,272,4.0,6.0,64,0.00,,,0.00,LWC V2.00 B2112,2013-04-01 08:06:00,
2013-04-01 01:11:00,46.7,35.6,29.88,WNW,284,4.0,6.0,65,0.00,,,0.00,LWC V2.00 B2112,2013-04-01 08:11:00,
2013-04-01 01:16:00,46.5,35.8,29.88,WNW,292,4.0,7.0,66,0.00,,,0.00,LWC V2.00 B2112,2013-04-01 08:16:00,
2013-04-01 01:21:00,46.8,35.3,29.88,WNW,301,8.0,10.0,64,0.00,,,0.00,LWC V2.00 B2112,2013-04-01 08:21:00,
2013-04-01 01:26:00,46.8,34.9,29.88,WNW,288,6.0,8.0,63,0.00,,,0.00,LWC V2.00 B2112,2013-04-01 08:26:00,
2013-04-01 01:31:00,46.1,35.8,29.88,WNW,294,6.0,8.0,67,0.00,,,0.00,LWC V2.00 B2112,2013-04-01 08:31:00,
2013-04-01 01:36:00,45.8,35.5,29.88,WNW,301,7.0,9.0,67,0.00,,,0.00,LWC V2.00 B2112,2013-04-01 08:36:00,
2013-04-01 01:41:00,46.0,34.9,29.88,NW,305,7.0,7.0,65,0.00,,,0.00,LWC V2.00 B2112,2013-04-01 08:41:00,
2013-04-01 01:46:00,46.2,34.7,29.88,West,277,8.0,9.0,64,0.00,,,0.00,LWC V2.00 B2112,2013-04-01 08:46:00,
2013-04-01 01:51:00,45.7,35.0,29.88,WNW,295,7.0,8.0,66,0.00,,,0.00,LWC V2.00 B2112,2013-04-01 08:51:00,
2013-04-01 01:56:00,45.5,34.8,29.88,WNW,296,7.0,8.0,66,0.00,,,0.00,LWC V2.00 B2112,2013-04-01 08:56:00,
2013-04-01 02:01:00,45.4,35.1,29.88,WNW,292,7.0,7.0,67,0.00,,,0.00,LWC V2.00 B2112,2013-04-01 09:01:00,
2013-04-01 02:06:00,45.5,34.8,29.88,WNW,287,4.0,9.0,66,0.00,,,0.00,LWC V2.00 B2112,2013-04-01 09:06:00,
2013-04-01 02:11:00,45.1,35.2,29.88,WNW,287,6.0,6.0,68,0.00,,,0.00,LWC V2.00 B2112,2013-04-01 09:11:00,
2013-04-01 02:16:00,44.9,34.2,29.88,West,281,8.0,9.0,66,0.00,,,0.00,LWC V2.00 B2112,2013-04-01 09:16:00,
2013-04-01 02:21:00,44.9,35.0,29.88,WNW,282,2.0,7.0,68,0.00,,,0.00,LWC V2.00 B2112,2013-04-01 09:21:00,
2013-04-01 02:26:00,44.6,34.7,29.88,WNW,302,2.0,6.0,68,0.00,,,0.00,LWC V2.00 B2112,2013-04-01 09:26:00,
2013-04-01 02:31:00,44.5,35.7,29.89,WNW,285,6.0,8.0,71,0.00,,,0.00,LWC V2.00 B2112,2013-04-01 09:31:00,
2013-04-01 02:36:00,44.2,35.0,29.89,WNW,295,6.0,6.0,70,0.00,,,0.00,LWC V2.00 B2112,2013-04-01 09:36:00,
2013-04-01 02:41:00,43.9,35.1,29.89,WNW,296,2.0,6.0,71,0.00,,,0.00,LWC V2.00 B2112,2013-04-01 09:41:00,
2013-04-01 02:46:00,43.9,34.8,29.89,WNW,296,6.0,6.0,70,0.00,,,0.00,LWC V2.00 B2112,2013-04-01 09:46:00,
2013-04-01 02:51:00,43.8,35.4,29.89,WNW,298,1.0,7.0,72,0.00,,,0.00,LWC V2.00 B2112,2013-04-01 09:51:00,
2013-04-01 02:56:00,43.6,34.8,29.89,WNW,292,2.0,6.0,71,0.00,,,0.00,LWC V2.00 B2112,2013-04-01 09:56:00,
2013-04-01 03:01:00,43.6,35.2,29.88,WNW,298,2.0,7.0,72,0.00,,,0.00,LWC V2.00 B2112,2013-04-01 10:01:00,
2013-04-01 03:06:00,43.3,34.9,29.88,WNW,298,1.0,4.0,72,0.00,,,0.00,LWC V2.00 B2112,2013-04-01 10:06:00,
2013-04-01 03:11:00,43.5,35.1,29.88,NW,304,7.0,10.0,72,0.00,,,0.00,LWC V2.00 B2112,2013-04-01 10:11:00,
2013-04-01 03:16:00,43.3,34.5,29.89,WNW,301,4.0,6.0,71,0.00,,,0.00,LWC V2.00 B2112,2013-04-01 10:16:00,
2013-04-01 03:21:00,43.2,34.8,29.89,WNW,301,0.0,4.0,72,0.00,,,0.00,LWC V2.00 B2112,2013-04-01 10:21:00,
2013-04-01 03:26:00,42.9,34.5,29.89,NW,306,2.0,6.0,72,0.00,,,0.00,LWC V2.00 B2112,2013-04-01 10:26:00,
2013-04-01 03:31:00,43.1,35.0,29.89,West,274,7.0,7.0,73,0.00,,,0.00,LWC V2.00 B2112,2013-04-01 10:31:00,
2013-04-01 03:36:00,43.3,34.2,29.89,NNW,342,9.0,10.0,70,0.00,,,0.00,LWC V2.00 B2112,2013-04-01 10:36:00,
2013-04-01 03:41:00,43.1,34.3,29.89,NW,319,4.0,6.0,71,0.00,,,0.00,LWC V2.00 B2112,2013-04-01 10:41:00,
2013-04-01 03:46:00,43.1,35.0,29.89,NW,325,2.0,6.0,73,0.00,,,0.00,LWC V2.00 B2112,2013-04-01 10:46:00,
2013-04-01 03:51:00,42.8,34.8,29.89,NW,319,8.0,8.0,73,0.00,,,0.00,LWC V2.00 B2112,2013-04-01 10:51:00,
2013-04-01 03:56:00,42.9,35.2,29.89,WNW,284,4.0,8.0,74,0.00,,,0.00,LWC V2.00 B2112,2013-04-01 10:56:00,
2013-04-01 04:01:00,42.8,34.8,29.89,WNW,284,6.0,9.0,73,0.00,,,0.00,LWC V2.00 B2112,2013-04-01 11:01:00,
2013-04-01 04:06:00,42.9,34.5,29.89,NW,312,6.0,7.0,72,0.00,,,0.00,LWC V2.00 B2112,2013-04-01 11:06:00,
2013-04-01 04:11:00,43.1,34.3,29.89,WNW,288,7.0,8.0,71,0.00,,,0.00,LWC V2.00 B2112,2013-04-01 11:11:00,
2013-04-01 04:16:00,43.2,34.8,29.88,WNW,296,6.0,7.0,72,0.00,,,0.00,LWC V2.00 B2112,2013-04-01 11:16:00,
2013-04-01 04:21:00,42.9,34.5,29.88,NW,320,4.0,9.0,72,0.00,,,0.00,LWC V2.00 B2112,2013-04-01 11:21:00,
2013-04-01 04:26:00,42.8,34.8,29.88,NW,304,4.0,7.0,73,0.00,,,0.00,LWC V2.00 B2112,2013-04-01 11:26:00,
2013-04-01 04:31:00,42.3,34.3,29.89,NW,315,0.0,4.0,73,0.00,,,0.00,LWC V2.00 B2112,2013-04-01 11:31:00,
2013-04-01 04:36:00,42.2,34.2,29.89,NW,308,2.0,8.0,73,0.00,,,0.00,LWC V2.00 B2112,2013-04-01 11:36:00,
2013-04-01 04:41:00,42.2,34.2,29.89,NW,322,6.0,7.0,73,0.00,,,0.00,LWC V2.00 B2112,2013-04-01 11:41:00,
2013-04-01 04:46:00,42.6,34.6,29.89,NW,309,7.0,8.0,73,0.00,,,0.00,LWC V2.00 B2112,2013-04-01 11:46:00,
2013-04-01 04:51:00,42.5,34.1,29.89,NW,320,6.0,7.0,72,0.00,,,0.00,LWC V2.00 B2112,2013-04-01 11:51:00,
2013-04-01 04:56:00,42.2,34.5,29.89,NW,311,4.0,8.0,74,0.00,,,0.00,LWC V2.00 B2112,2013-04-01 11:56:00,
2013-04-01 05:01:00,42.3,33.9,29.89,WNW,284,8.0,9.0,72,0.00,,,0.00,LWC V2.00 B2112,2013-04-01 12:01:00,
2013-04-01 05:06:00,42.2,34.5,29.89,WNW,301,2.0,7.0,74,0.00,,,0.00,LWC V2.00 B2112,2013-04-01 12:06:00,
2013-04-01 05:11:00,41.8,34.1,29.89,NW,319,2.0,6.0,74,0.00,,,0.00,LWC V2.00 B2112,2013-04-01 12:11:00,
2013-04-01 05:16:00,41.8,34.5,29.89,NW,309,6.0,8.0,75,0.00,,,0.00,LWC V2.00 B2112,2013-04-01 12:16:00,
2013-04-01 05:21:00,41.5,34.5,29.89,WNW,298,4.0,7.0,76,0.00,,,0.00,LWC V2.00 B2112,2013-04-01 12:21:00,
2013-04-01 05:26:00,41.6,34.3,29.89,NNW,333,6.0,6.0,75,0.00,,,0.00,LWC V2.00 B2112,2013-04-01 12:26:00,
2013-04-01 05:31:00,41.5,33.8,29.89,NW,312,4.0,7.0,74,0.00,,,0.00,LWC V2.00 B2112,2013-04-01 12:31:00,
2013-04-01 05:36:00,41.5,34.5,29.89,NNW,336,0.0,4.0,76,0.00,,,0.00,LWC V2.00 B2112,2013-04-01 12:36:00,
2013-04-01 05:41:00,41.2,34.2,29.89,NW,308,2.0,6.0,76,0.00,,,0.00,LWC V2.00 B2112,2013-04-01 12:41:00,
2013-04-01 05:46:00,41.3,34.3,29.90,WNW,299,4.0,6.0,76,0.00,,,0.00,LWC V2.00 B2112,2013-04-01 12:46:00,
2013-04-01 05:51:00,41.3,34.3,29.90,NW,320,4.0,6.0,76,0.00,,,0.00,LWC V2.00 B2112,2013-04-01 12:51:00,
2013-04-01 05:56:00,41.5,34.5,29.90,WNW,292,6.0,9.0,76,0.00,,,0.00,LWC V2.00 B2112,2013-04-01 12:56:00,
2013-04-01 06:01:00,41.3,34.3,29.90,WNW,302,2.0,8.0,76,0.00,,,0.00,LWC V2.00 B2112,2013-04-01 13:01:00,
2013-04-01 06:06:00,41.2,33.9,29.90,NNW,336,2.0,2.0,75,0.00,,,0.00,LWC V2.00 B2112,2013-04-01 13:06:00,
2013-04-01 06:11:00,41.1,33.8,29.90,NNW,336,0.0,2.0,75,0.00,,,0.00,LWC V2.00 B2112,2013-04-01 13:11:00,
2013-04-01 06:16:00,41.1,34.1,29.91,WNW,291,4.0,7.0,76,0.00,,,0.00,LWC V2.00 B2112,2013-04-01 13:16:00,
2013-04-01 06:21:00,40.8,33.8,29.91,NW,305,1.0,6.0,76,0.00,,,0.00,LWC V2.00 B2112,2013-04-01 13:21:00,
2013-04-01 06:26:00,40.6,34.0,29.91,WNW,298,4.0,6.0,77,0.00,,,0.00,LWC V2.00 B2112,2013-04-01 13:26:00,
2013-04-01 06:31:00,40.6,34.0,29.92,WNW,294,6.0,6.0,77,0.00,,,0.00,LWC V2.00 B2112,2013-04-01 13:31:00,
2013-04-01 06:36:00,40.5,33.9,29.92,NW,308,6.0,6.0,77,0.00,,,0.00,LWC V2.00 B2112,2013-04-01 13:36:00,
2013-04-01 06:41:00,40.5,33.9,29.92,NW,315,0.0,2.0,77,0.00,,,0.00,LWC V2.00 B2112,2013-04-01 13:41:00,
2013-04-01 06:46:00,40.2,33.9,29.92,NW,315,6.0,6.0,78,0.00,,,0.00,LWC V2.00 B2112,2013-04-01 13:46:00,
2013-04-01 06:51:00,40.2,33.9,29.92,NW,308,4.0,6.0,78,0.00,,,0.00,LWC V2.00 B2112,2013-04-01 13:51:00,
2013-04-01 06:56:00,40.2,33.9,29.92,NW,305,6.0,6.0,78,0.00,,,0.00,LWC V2.00 B2112,2013-04-01 13:56:00,
2013-04-01 07:01:00,40.2,33.2,29.92,NW,325,7.0,8.0,76,0.00,,,0.00,LWC V2.00 B2112,2013-04-01 14:01:00,
2013-04-01 07:06:00,40.6,33.6,29.92,NW,312,7.0,7.0,76,0.00,,,0.00,LWC V2.00 B2112,2013-04-01 14:06:00,
2013-04-01 07:11:00,40.9,33.6,29.92,NW,319,4.0,7.0,75,0.00,,,0.00,LWC V2.00 B2112,2013-04-01 14:11:00,
2013-04-01 07:16:00,41.1,33.5,29.92,WNW,292,8.0,9.0,74,0.00,,,0.00,LWC V2.00 B2112,2013-04-01 14:16:00,
2013-04-01 07:21:00,40.8,33.8,29.92,NW,306,4.0,7.0,76,0.00,,,0.00,LWC V2.00 B2112,2013-04-01 14:21:00,
2013-04-01 07:26:00,40.8,34.2,29.92,WNW,302,2.0,9.0,77,0.00,,,0.00,LWC V2.00 B2112,2013-04-01 14:26:00,
2013-04-01 07:31:00,41.1,33.1,29.93,NW,304,8.0,9.0,73,0.00,,,0.00,LWC V2.00 B2112,2013-04-01 14:31:00,
2013-04-01 07:36:00,41.2,33.6,29.93,WNW,294,4.0,9.0,74,0.00,,,0.00,LWC V2.00 B2112,2013-04-01 14:36:00,
2013-04-01 07:41:00,40.9,33.6,29.93,NW,306,6.0,6.0,75,0.00,,,0.00,LWC V2.00 B2112,2013-04-01 14:41:00,
2013-04-01 07:46:00,41.1,34.1,29.93,North,357,6.0,7.0,76,0.00,,,0.00,LWC V2.00 B2112,2013-04-01 14:46:00,
2013-04-01 07:51:00,41.2,34.2,29.93,North,349,0.0,2.0,76,0.00,,,0.00,LWC V2.00 B2112,2013-04-01 14:51:00,
2013-04-01 07:56:00,41.3,34.0,29.93,NW,308,0.0,6.0,75,0.00,,,0.00,LWC V2.00 B2112,2013-04-01 14:56:00,
2013-04-01 08:01:00,41.6,34.6,29.93,West,278,2.0,4.0,76,0.00,,,0.00,LWC V2.00 B2112,2013-04-01 15:01:00,
2013-04-01 08:06:00,41.6,34.3,29.93,NNW,346,0.0,6.0,75,0.00,,,0.00,LWC V2.00 B2112,2013-04-01 15:06:00,
2013-04-01 08:11:00,41.5,34.2,29.93,NNW,346,0.0,0.0,75,0.00,,,0.00,LWC V2.00 B2112,2013-04-01 15:11:00,
2013-04-01 08:16:00,41.2,34.2,29.93,NNW,346,0.0,0.0,76,0.00,,,0.00,LWC V2.00 B2112,2013-04-01 15:16:00,
2013-04-01 08:21:00,41.6,34.9,29.93,NNW,346,0.0,0.0,77,0.00,,,0.00,LWC V2.00 B2112,2013-04-01 15:21:00,
2013-04-01 08:26:00,43.1,35.4,29.93,NNW,346,0.0,0.0,74,0.00,,,0.00,LWC V2.00 B2112,2013-04-01 15:26:00,
2013-04-01 08:31:00,43.9,35.5,29.93,NNW,346,0.0,0.0,72,0.00,,,0.00,LWC V2.00 B2112,2013-04-01 15:31:00,
2013-04-01 08:36:00,44.9,36.1,29.93,NNW,346,0.0,0.0,71,0.00,,,0.00,LWC V2.00 B2112,2013-04-01 15:36:00,
2013-04-01 08:41:00,45.8,35.8,29.93,NNW,346,0.0,0.0,68,0.00,,,0.00,LWC V2.00 B2112,2013-04-01 15:41:00,
2013-04-01 08:46:00,47.1,37.1,29.92,NNW,346,0.0,0.0,68,0.00,,,0.00,LWC V2.00 B2112,2013-04-01 15:46:00,
2013-04-01 08:51:00,47.9,35.9,29.92,NNW,346,0.0,0.0,63,0.00,,,0.00,LWC V2.00 B2112,2013-04-01 15:51:00,
2013-04-01 08:56:00,49.1,36.6,29.92,NNW,346,0.0,0.0,62,0.00,,,0.00,LWC V2.00 B2112,2013-04-01 15:56:00,
2013-04-01 09:01:00,49.6,37.1,29.92,NNW,346,0.0,1.0,62,0.00,,,0.00,LWC V2.00 B2112,2013-04-01 16:01:00,
2013-04-01 09:06:00,49.6,35.9,29.92,NNW,346,0.0,1.0,59,0.00,,,0.00,LWC V2.00 B2112,2013-04-01 16:06:00,
2013-04-01 09:11:00,50.1,36.8,29.92,NNW,346,0.0,0.0,60,0.00,,,0.00,LWC V2.00 B2112,2013-04-01 16:11:00,
2013-04-01 09:16:00,50.8,35.7,29.92,NNW,346,0.0,0.0,56,0.00,,,0.00,LWC V2.00 B2112,2013-04-01 16:16:00,
2013-04-01 09:21:00,51.9,36.7,29.92,NNW,346,0.0,0.0,56,0.00,,,0.00,LWC V2.00 B2112,2013-04-01 16:21:00,
2013-04-01 09:26:00,53.2,37.5,29.92,NNW,346,0.0,0.0,55,0.00,,,0.00,LWC V2.00 B2112,2013-04-01 16:26:00,
2013-04-01 09:31:00,53.6,36.4,29.91,NNW,346,0.0,0.0,52,0.00,,,0.00,LWC V2.00 B2112,2013-04-01 16:31:00,
2013-04-01 09:36:00,53.6,37.8,29.91,NNW,346,0.0,0.0,55,0.00,,,0.00,LWC V2.00 B2112,2013-04-01 16:36:00,
2013-04-01 09:41:00,54.1,37.8,29.91,NNW,346,1.0,1.0,54,0.00,,,0.00,LWC V2.00 B2112,2013-04-01 16:41:00,
2013-04-01 09:46:00,54.5,35.7,29.91,NNW,347,0.0,1.0,49,0.00,,,0.00,LWC V2.00 B2112,2013-04-01 16:46:00,
2013-04-01 09:51:00,54.5,35.2,29.91,NNE,28,0.0,4.0,48,0.00,,,0.00,LWC V2.00 B2112,2013-04-01 16:51:00,
2013-04-01 09:56:00,54.8,36.0,29.91,NE,35,0.0,4.0,49,0.00,,,0.00,LWC V2.00 B2112,2013-04-01 16:56:00,
2013-04-01 10:01:00,55.3,35.9,29.91,ESE,120,0.0,6.0,48,0.00,,,0.00,LWC V2.00 B2112,2013-04-01 17:01:00,
2013-04-01 10:06:00,55.4,35.5,29.91,ESE,119,4.0,6.0,47,0.00,,,0.00,LWC V2.00 B2112,2013-04-01 17:06:00,
2013-04-01 10:11:00,56.2,36.8,29.91,SE,134,0.0,2.0,48,0.00,,,0.00,LWC V2.00 B2112,2013-04-01 17:11:00,
2013-04-01 10:16:00,56.6,36.1,29.90,SE,130,9.0,9.0,46,0.00,,,0.00,LWC V2.00 B2112,2013-04-01 17:16:00,
2013-04-01 10:21:00,56.5,36.0,29.90,ESE,123,0.0,4.0,46,0.00,,,0.00,LWC V2.00 B2112,2013-04-01 17:21:00,
2013-04-01 10:26:00,56.9,37.4,29.90,SE,144,0.0,4.0,48,0.00,,,0.00,LWC V2.00 B2112,2013-04-01 17:26:00,
2013-04-01 10:31:00,57.8,36.6,29.90,South,178,0.0,6.0,45,0.00,,,0.00,LWC V2.00 B2112,2013-04-01 17:31:00,
2013-04-01 10:36:00,58.9,37.6,29.90,South,175,0.0,4.0,45,0.00,,,0.00,LWC V2.00 B2112,2013-04-01 17:36:00,
2013-04-01 10:41:00,59.5,39.8,29.90,ESE,123,2.0,6.0,48,0.00,,,0.00,LWC V2.00 B2112,2013-04-01 17:41:00,
2013-04-01 10:46:00,59.6,37.7,29.89,SE,145,1.0,6.0,44,0.00,,,0.00,LWC V2.00 B2112,2013-04-01 17:46:00,
2013-04-01 10:51:00,60.1,38.1,29.89,South,179,0.0,0.0,44,0.00,,,0.00,LWC V2.00 B2112,2013-04-01 17:51:00,
2013-04-01 10:56:00,60.2,38.2,29.89,SSE,164,0.0,7.0,44,0.00,,,0.00,LWC V2.00 B2112,2013-04-01 17:56:00,
2013-04-01 11:01:00,60.5,35.4,29.89,South,178,0.0,6.0,39,0.00,,,0.00,LWC V2.00 B2112,2013-04-01 18:01:00,
2013-04-01 11:06:00,61.2,37.3,29.89,SSE,168,0.0,2.0,41,0.00,,,0.00,LWC V2.00 B2112,2013-04-01 18:06:00,
2013-04-01 11:11:00,61.3,38.0,29.89,SSW,192,4.0,4.0,42,0.00,,,0.00,LWC V2.00 B2112,2013-04-01 18:11:00,
2013-04-01 11:16:00,61.6,36.4,29.89,SSE,168,0.0,6.0,39,0.00,,,0.00,LWC V2.00 B2112,2013-04-01 18:16:00,
2013-04-01 11:21:00,62.0,36.1,29.89,SE,145,1.0,2.0,38,0.00,,,0.00,LWC V2.00 B2112,2013-04-01 18:21:00,
2013-04-01 11:26:00,62.3,37.0,29.89,South,172,0.0,2.0,39,0.00,,,0.00,LWC V2.00 B2112,2013-04-01 18:26:00,
2013-04-01 11:31:00,62.7,37.4,29.88,SSE,150,0.0,2.0,39,0.00,,,0.00,LWC V2.00 B2112,2013-04-01 18:31:00,
2013-04-01 11:36:00,63.1,35.7,29.88,SSE,158,6.0,6.0,36,0.00,,,0.00,LWC V2.00 B2112,2013-04-01 18:36:00,
2013-04-01 11:41:00,63.2,38.5,29.88,SSE,162,0.0,1.0,40,0.00,,,0.00,LWC V2.00 B2112,2013-04-01 18:41:00,
2013-04-01 11:46:00,63.5,37.4,29.88,South,174,1.0,2.0,38,0.00,,,0.00,LWC V2.00 B2112,2013-04-01 18:46:00,
2013-04-01 11:51:00,64.0,36.5,29.88,ESE,107,0.0,1.0,36,0.00,,,0.00,LWC V2.00 B2112,2013-04-01 18:51:00,
2013-04-01 11:56:00,64.0,35.1,29.88,South,172,0.0,2.0,34,0.00,,,0.00,LWC V2.00 B2112,2013-04-01 18:56:00,
2013-04-01 12:01:00,64.3,36.1,29.87,SE,144,0.0,1.0,35,0.00,,,0.00,LWC V2.00 B2112,2013-04-01 19:01:00,
2013-04-01 12:06:00,64.3,38.1,29.87,SE,130,6.0,7.0,38,0.00,,,0.00,LWC V2.00 B2112,2013-04-01 19:06:00,
2013-04-01 12:11:00,64.0,36.5,29.87,SE,128,4.0,6.0,36,0.00,,,0.00,LWC V2.00 B2112,2013-04-01 19:11:00,
2013-04-01 12:16:00,64.3,36.8,29.87,SE,145,0.0,7.0,36,0.00,,,0.00,LWC V2.00 B2112,2013-04-01 19:16:00,
2013-04-01 12:22:00,65.2,36.1,29.87,South,175,0.0,4.0,34,0.00,,,0.00,LWC V2.00 B2112,2013-04-01 19:22:00,
2013-04-01 12:26:00,65.8,35.9,29.87,SE,138,4.0,4.0,33,0.00,,,0.00,LWC V2.00 B2112,2013-04-01 19:26:00,
2013-04-01 12:31:00,66.1,38.4,29.86,SE,136,6.0,6.0,36,0.00,,,0.00,LWC V2.00 B2112,2013-04-01 19:31:00,
2013-04-01 12:36:00,66.1,36.2,29.86,ESE,109,0.0,4.0,33,0.00,,,0.00,LWC V2.00 B2112,2013-04-01 19:36:00,
2013-04-01 12:41:00,66.1,39.1,29.86,SE,130,4.0,7.0,37,0.00,,,0.00,LWC V2.00 B2112,2013-04-01 19:41:00,
2013-04-01 12:46:00,66.4,36.4,29.86,SSE,160,0.0,2.0,33,0.00,,,0.00,LWC V2.00 B2112,2013-04-01 19:46:00,
2013-04-01 12:51:00,66.9,36.1,29.86,South,186,0.0,9.0,32,0.00,,,0.00,LWC V2.00 B2112,2013-04-01 19:51:00,
2013-04-01 12:56:00,67.6,36.7,29.86,SSW,192,0.0,7.0,32,0.00,,,0.00,LWC V2.00 B2112,2013-04-01 19:56:00,
2013-04-01 13:01:00,67.6,38.2,29.85,SE,130,2.0,2.0,34,0.00,,,0.00,LWC V2.00 B2112,2013-04-01 20:01:00,
2013-04-01 13:06:00,67.9,36.9,29.85,SSE,154,0.0,7.0,32,0.00,,,0.00,LWC V2.00 B2112,2013-04-01 20:06:00,
2013-04-01 13:11:00,68.4,36.6,29.85,SSE,152,1.0,1.0,31,0.00,,,0.00,LWC V2.00 B2112,2013-04-01 20:11:00,
2013-04-01 13:16:00,68.8,37.7,29.84,SE,133,0.0,9.0,32,0.00,,,0.00,LWC V2.00 B2112,2013-04-01 20:16:00,
2013-04-01 13:21:00,68.8,36.1,29.84,SE,141,2.0,2.0,30,0.00,,,0.00,LWC V2.00 B2112,2013-04-01 20:21:00,
2013-04-01 13:26:00,68.6,37.6,29.84,South,171,2.0,2.0,32,0.00,,,0.00,LWC V2.00 B2112,2013-04-01 20:26:00,
2013-04-01 13:31:00,69.1,39.5,29.84,SSE,162,1.0,1.0,34,0.00,,,0.00,LWC V2.00 B2112,2013-04-01 20:31:00,
2013-04-01 13:36:00,69.6,39.2,29.84,SSE,155,0.0,1.0,33,0.00,,,0.00,LWC V2.00 B2112,2013-04-01 20:36:00,
2013-04-01 13:41:00,69.8,37.8,29.84,SSE,157,0.0,1.0,31,0.00,,,0.00,LWC V2.00 B2112,2013-04-01 20:41:00,
2013-04-01 13:46:00,70.3,37.4,29.83,SE,128,1.0,2.0,30,0.00,,,0.00,LWC V2.00 B2112,2013-04-01 20:46:00,
2013-04-01 13:51:00,69.9,37.9,29.83,SSE,147,1.0,4.0,31,0.00,,,0.00,LWC V2.00 B2112,2013-04-01 20:51:00,
2013-04-01 13:56:00,70.3,38.2,29.83,SSE,157,0.0,4.0,31,0.00,,,0.00,LWC V2.00 B2112,2013-04-01 20:56:00,
2013-04-01 14:01:00,70.8,36.1,29.82,SSE,152,0.0,2.0,28,0.00,,,0.00,LWC V2.00 B2112,2013-04-01 21:01:00,
2013-04-01 14:06:00,71.5,36.7,29.82,SE,143,0.0,6.0,28,0.00,,,0.00,LWC V2.00 B2112,2013-04-01 21:06:00,
2013-04-01 14:11:00,71.1,37.2,29.82,East,93,0.0,4.0,29,0.00,,,0.00,LWC V2.00 B2112,2013-04-01 21:11:00,
2013-04-01 14:16:00,71.3,39.1,29.82,SE,127,0.0,0.0,31,0.00,,,0.00,LWC V2.00 B2112,2013-04-01 21:16:00,
2013-04-01 14:21:00,72.0,39.7,29.82,SSE,157,4.0,4.0,31,0.00,,,0.00,LWC V2.00 B2112,2013-04-01 21:21:00,
2013-04-01 14:26:00,72.8,38.7,29.82,SSE,160,0.0,2.0,29,0.00,,,0.00,LWC V2.00 B2112,2013-04-01 21:26:00,
2013-04-01 14:31:00,73.3,38.2,29.82,South,191,0.0,6.0,28,0.00,,,0.00,LWC V2.00 B2112,2013-04-01 21:31:00,
2013-04-01 14:36:00,73.9,38.7,29.82,South,189,0.0,0.0,28,0.00,,,0.00,LWC V2.00 B2112,2013-04-01 21:36:00,
2013-04-01 14:41:00,74.6,40.2,29.82,South,189,0.0,0.0,29,0.00,,,0.00,LWC V2.00 B2112,2013-04-01 21:41:00,
2013-04-01 14:46:00,74.7,39.4,29.81,SSE,161,1.0,1.0,28,0.00,,,0.00,LWC V2.00 B2112,2013-04-01 21:46:00,
2013-04-01 14:51:00,74.4,38.2,29.81,SE,134,0.0,1.0,27,0.00,,,0.00,LWC V2.00 B2112,2013-04-01 21:51:00,
2013-04-01 14:56:00,74.9,40.5,29.81,SSW,192,0.0,2.0,29,0.00,,,0.00,LWC V2.00 B2112,2013-04-01 21:56:00,
2013-04-01 15:01:00,75.6,38.3,29.80,South,182,0.0,4.0,26,0.00,,,0.00,LWC V2.00 B2112,2013-04-01 22:01:00,
2013-04-01 15:06:00,76.0,37.6,29.80,South,182,0.0,1.0,25,0.00,,,0.00,LWC V2.00 B2112,2013-04-01 22:06:00,
2013-04-01 15:11:00,76.5,40.0,29.80,SSW,196,0.0,2.0,27,0.00,,,0.00,LWC V2.00 B2112,2013-04-01 22:11:00,
2013-04-01 15:16:00,76.5,37.0,29.80,SSE,161,0.0,0.0,24,0.00,,,0.00,LWC V2.00 B2112,2013-04-01 22:16:00,
2013-04-01 15:21:00,76.8,39.3,29.80,SSE,161,0.0,1.0,26,0.00,,,0.00,LWC V2.00 B2112,2013-04-01 22:21:00,
2013-04-01 15:26:00,77.6,41.0,29.80,SSE,161,0.0,1.0,27,0.00,,,0.00,LWC V2.00 B2112,2013-04-01 22:26:00,
2013-04-01 15:31:00,77.7,38.0,29.79,South,186,0.0,1.0,24,0.00,,,0.00,LWC V2.00 B2112,2013-04-01 22:31:00,
2013-04-01 15:36:00,78.1,35.0,29.79,South,186,0.0,0.0,21,0.00,,,0.00,LWC V2.00 B2112,2013-04-01 22:36:00,
2013-04-01 15:41:00,78.5,34.1,29.79,South,186,0.0,0.0,20,0.00,,,0.00,LWC V2.00 B2112,2013-04-01 22:41:00,
2013-04-01 15:46:00,78.1,35.0,29.79,WSW,241,6.0,8.0,21,0.00,,,0.00,LWC V2.00 B2112,2013-04-01 22:46:00,
2013-04-01 15:51:00,76.5,33.6,29.79,NW,318,10.0,16.0,21,0.00,,,0.00,LWC V2.00 B2112,2013-04-01 22:51:00,
2013-04-01 15:56:00,76.0,33.2,29.79,West,268,8.0,10.0,21,0.00,,,0.00,LWC V2.00 B2112,2013-04-01 22:56:00,
2013-04-01 16:01:00,76.3,35.8,29.79,NW,318,10.0,13.0,23,0.00,,,0.00,LWC V2.00 B2112,2013-04-01 23:01:00,
2013-04-01 16:06:00,76.1,37.7,29.79,WNW,291,9.0,11.0,25,0.00,,,0.00,LWC V2.00 B2112,2013-04-01 23:06:00,
2013-04-01 16:11:00,76.0,33.2,29.79,WNW,298,10.0,10.0,21,0.00,,,0.00,LWC V2.00 B2112,2013-04-01 23:11:00,
2013-04-01 16:16:00,76.3,33.5,29.79,North,352,8.0,10.0,21,0.00,,,0.00,LWC V2.00 B2112,2013-04-01 23:16:00,
2013-04-01 16:21:00,76.0,35.5,29.79,WSW,240,7.0,10.0,23,0.00,,,0.00,LWC V2.00 B2112,2013-04-01 23:21:00,
2013-04-01 16:27:00,76.1,34.5,29.79,WNW,287,7.0,8.0,22,0.00,,,0.00,LWC V2.00 B2112,2013-04-01 23:27:00,
2013-04-01 16:31:00,76.1,36.7,29.79,North,359,8.0,10.0,24,0.00,,,0.00,LWC V2.00 B2112,2013-04-01 23:31:00,
2013-04-01 16:36:00,76.1,35.6,29.79,NNW,328,7.0,7.0,23,0.00,,,0.00,LWC V2.00 B2112,2013-04-01 23:36:00,
2013-04-01 16:41:00,76.3,35.8,29.79,North,0,2.0,8.0,23,0.00,,,0.00,LWC V2.00 B2112,2013-04-01 23:41:00,
2013-04-01 16:46:00,76.1,36.7,29.79,West,260,6.0,7.0,24,0.00,,,0.00,LWC V2.00 B2112,2013-04-01 23:46:00,
2013-04-01 16:51:00,75.8,33.1,29.79,NNW,343,6.0,8.0,21,0.00,,,0.00,LWC V2.00 B2112,2013-04-01 23:51:00,
2013-04-01 16:56:00,75.8,35.3,29.79,NW,326,6.0,10.0,23,0.00,,,0.00,LWC V2.00 B2112,2013-04-01 23:56:00,
2013-04-01 17:01:00,75.3,34.9,29.79,NW,326,2.0,16.0,23,0.00,,,0.00,LWC V2.00 B2112,2013-04-02 00:01:00,
2013-04-01 17:06:00,74.9,32.3,29.79,NNW,330,7.0,16.0,21,0.00,,,0.00,LWC V2.00 B2112,2013-04-02 00:06:00,
2013-04-01 17:11:00,74.7,33.3,29.79,NW,323,7.0,13.0,22,0.00,,,0.00,LWC V2.00 B2112,2013-04-02 00:11:00,
2013-04-01 17:17:00,74.7,33.3,29.80,NNW,339,10.0,15.0,22,0.00,,,0.00,LWC V2.00 B2112,2013-04-02 00:17:00,
2013-04-01 17:22:00,74.2,32.9,29.80,NW,304,8.0,13.0,22,0.00,,,0.00,LWC V2.00 B2112,2013-04-02 00:22:00,
2013-04-01 17:27:00,74.0,33.8,29.80,North,352,9.0,14.0,23,0.00,,,0.00,LWC V2.00 B2112,2013-04-02 00:27:00,
2013-04-01 17:32:00,73.7,34.7,29.80,WNW,298,10.0,10.0,24,0.00,,,0.00,LWC V2.00 B2112,2013-04-02 00:32:00,
2013-04-01 17:37:00,73.5,33.4,29.80,North,359,9.0,13.0,23,0.00,,,0.00,LWC V2.00 B2112,2013-04-02 00:37:00,
2013-04-01 17:42:00,73.3,34.3,29.80,WNW,294,7.0,10.0,24,0.00,,,0.00,LWC V2.00 B2112,2013-04-02 00:42:00,
2013-04-01 17:47:00,73.2,36.2,29.80,North,3,8.0,9.0,26,0.00,,,0.00,LWC V2.00 B2112,2013-04-02 00:47:00,
2013-04-01 17:52:00,73.2,35.3,29.80,NNW,333,10.0,14.0,25,0.00,,,0.00,LWC V2.00 B2112,2013-04-02 00:52:00,
2013-04-01 17:57:00,72.7,35.8,29.80,NNW,329,11.0,15.0,26,0.00,,,0.00,LWC V2.00 B2112,2013-04-02 00:57:00,
2013-04-01 18:02:00,72.3,36.4,29.81,NW,312,8.0,11.0,27,0.00,,,0.00,LWC V2.00 B2112,2013-04-02 01:02:00,
2013-04-01 18:07:00,71.6,35.8,29.81,NNW,347,2.0,14.0,27,0.00,,,0.00,LWC V2.00 B2112,2013-04-02 01:07:00,
2013-04-01 18:12:00,71.1,35.4,29.81,SSW,196,0.0,13.0,27,0.00,,,0.00,LWC V2.00 B2112,2013-04-02 01:12:00,
2013-04-01 18:17:00,70.8,36.1,29.81,NW,312,7.0,13.0,28,0.00,,,0.00,LWC V2.00 B2112,2013-04-02 01:17:00,
2013-04-01 18:22:00,70.6,35.0,29.81,NNE,16,7.0,11.0,27,0.00,,,0.00,LWC V2.00 B2112,2013-04-02 01:22:00,
2013-04-01 18:27:00,70.3,35.6,29.81,NNE,27,7.0,11.0,28,0.00,,,0.00,LWC V2.00 B2112,2013-04-02 01:27:00,
2013-04-01 18:32:00,70.1,35.5,29.82,NNE,20,7.0,11.0,28,0.00,,,0.00,LWC V2.00 B2112,2013-04-02 01:32:00,
2013-04-01 18:37:00,69.8,36.1,29.82,NNW,340,0.0,8.0,29,0.00,,,0.00,LWC V2.00 B2112,2013-04-02 01:37:00,
2013-04-01 18:42:00,69.6,35.9,29.82,North,3,2.0,10.0,29,0.00,,,0.00,LWC V2.00 B2112,2013-04-02 01:42:00,
2013-04-01 18:47:00,69.4,36.6,29.83,NW,320,4.0,9.0,30,0.00,,,0.00,LWC V2.00 B2112,2013-04-02 01:47:00,
2013-04-01 18:52:00,69.1,36.4,29.83,North,359,6.0,11.0,30,0.00,,,0.00,LWC V2.00 B2112,2013-04-02 01:52:00,
2013-04-01 18:57:00,68.8,37.7,29.83,North,0,2.0,9.0,32,0.00,,,0.00,LWC V2.00 B2112,2013-04-02 01:57:00,
2013-04-01 19:02:00,68.6,36.8,29.83,NE,35,0.0,8.0,31,0.00,,,0.00,LWC V2.00 B2112,2013-04-02 02:02:00,
2013-04-01 19:07:00,68.3,38.1,29.83,North,0,6.0,10.0,33,0.00,,,0.00,LWC V2.00 B2112,2013-04-02 02:07:00,
2013-04-01 19:12:00,67.9,36.9,29.83,East,82,1.0,6.0,32,0.00,,,0.00,LWC V2.00 B2112,2013-04-02 02:12:00,
2013-04-01 19:17:00,67.4,38.8,29.83,WSW,246,0.0,4.0,35,0.00,,,0.00,LWC V2.00 B2112,2013-04-02 02:17:00,
2013-04-01 19:22:00,67.1,37.8,29.83,NNE,18,6.0,9.0,34,0.00,,,0.00,LWC V2.00 B2112,2013-04-02 02:22:00,
2013-04-01 19:27:00,67.1,38.5,29.83,NW,311,15.0,15.0,35,0.00,,,0.00,LWC V2.00 B2112,2013-04-02 02:27:00,
2013-04-01 19:32:00,67.1,37.0,29.84,WNW,295,9.0,14.0,33,0.00,,,0.00,LWC V2.00 B2112,2013-04-02 02:32:00,
2013-04-01 19:37:00,66.8,37.5,29.84,North,0,4.0,10.0,34,0.00,,,0.00,LWC V2.00 B2112,2013-04-02 02:37:00,
2013-04-01 19:42:00,66.6,38.8,29.84,WNW,302,7.0,11.0,36,0.00,,,0.00,LWC V2.00 B2112,2013-04-02 02:42:00,
2013-04-01 19:47:00,66.3,37.8,29.85,NNW,333,7.0,8.0,35,0.00,,,0.00,LWC V2.00 B2112,2013-04-02 02:47:00,
2013-04-01 19:52:00,66.1,37.6,29.85,WNW,295,9.0,14.0,35,0.00,,,0.00,LWC V2.00 B2112,2013-04-02 02:52:00,
2013-04-01 19:57:00,65.8,38.1,29.85,NNW,335,8.0,11.0,36,0.00,,,0.00,LWC V2.00 B2112,2013-04-02 02:57:00,
2013-04-01 20:02:00,65.5,38.5,29.85,North,356,1.0,6.0,37,0.00,,,0.00,LWC V2.00 B2112,2013-04-02 03:02:00,
2013-04-01 20:07:00,65.3,39.0,29.85,NNW,330,7.0,8.0,38,0.00,,,0.00,LWC V2.00 B2112,2013-04-02 03:07:00,
2013-04-01 20:12:00,65.2,38.3,29.85,NNW,346,4.0,13.0,37,0.00,,,0.00,LWC V2.00 B2112,2013-04-02 03:12:00,
2013-04-01 20:17:00,65.0,38.8,29.85,North,354,8.0,8.0,38,0.00,,,0.00,LWC V2.00 B2112,2013-04-02 03:17:00,
2013-04-01 20:22:00,64.8,37.9,29.85,NW,323,2.0,6.0,37,0.00,,,0.00,LWC V2.00 B2112,2013-04-02 03:22:00,
2013-04-01 20:27:00,64.5,39.0,29.85,NE,49,4.0,6.0,39,0.00,,,0.00,LWC V2.00 B2112,2013-04-02 03:27:00,
2013-04-01 20:32:00,64.2,38.7,29.86,NNW,330,9.0,13.0,39,0.00,,,0.00,LWC V2.00 B2112,2013-04-02 03:32:00,
2013-04-01 20:37:00,64.0,38.5,29.86,NE,38,4.0,10.0,39,0.00,,,0.00,LWC V2.00 B2112,2013-04-02 03:37:00,
2013-04-01 20:42:00,63.9,39.1,29.86,ENE,69,4.0,11.0,40,0.00,,,0.00,LWC V2.00 B2112,2013-04-02 03:42:00,
2013-04-01 20:47:00,63.9,40.4,29.87,North,359,10.0,10.0,42,0.00,,,0.00,LWC V2.00 B2112,2013-04-02 03:47:00,
2013-04-01 20:52:00,63.5,39.4,29.87,NNW,344,4.0,11.0,41,0.00,,,0.00,LWC V2.00 B2112,2013-04-02 03:52:00,
2013-04-01 20:57:00,63.5,39.4,29.87,NNW,335,1.0,8.0,41,0.00,,,0.00,LWC V2.00 B2112,2013-04-02 03:57:00,
2013-04-01 21:00:00,63.4,39.3,29.87,North,359,2.0,9.0,41,0.00,,,0.00,LWC V2.00 B2112,2013-04-02 04:00:00,
2013-04-01 21:01:00,63.4,38.7,29.87,WNW,288,8.0,9.0,40,0.00,,,0.00,LWC V2.00 B2112,2013-04-02 04:01:00,
2013-04-01 21:06:00,63.2,40.3,29.87,North,356,10.0,13.0,43,0.00,,,0.00,LWC V2.00 B2112,2013-04-02 04:06:00,
2013-04-01 21:11:00,62.9,39.5,29.87,North,357,4.0,7.0,42,0.00,,,0.00,LWC V2.00 B2112,2013-04-02 04:11:00,
2013-04-01 21:16:00,62.7,40.5,29.87,NNE,17,2.0,9.0,44,0.00,,,0.00,LWC V2.00 B2112,2013-04-02 04:16:00,
2013-04-01 21:21:00,62.4,39.6,29.87,NW,313,1.0,9.0,43,0.00,,,0.00,LWC V2.00 B2112,2013-04-02 04:21:00,
2013-04-01 21:26:00,62.4,39.0,29.87,NW,315,4.0,6.0,42,0.00,,,0.00,LWC V2.00 B2112,2013-04-02 04:26:00,
2013-04-01 21:31:00,62.4,40.2,29.88,NW,306,8.0,15.0,44,0.00,,,0.00,LWC V2.00 B2112,2013-04-02 04:31:00,
2013-04-01 21:36:00,62.3,40.1,29.88,NNW,335,1.0,8.0,44,0.00,,,0.00,LWC V2.00 B2112,2013-04-02 04:36:00,
2013-04-01 21:41:00,62.1,39.3,29.88,NNW,330,6.0,6.0,43,0.00,,,0.00,LWC V2.00 B2112,2013-04-02 04:41:00,
2013-04-01 21:46:00,61.8,39.7,29.88,North,357,2.0,6.0,44,0.00,,,0.00,LWC V2.00 B2112,2013-04-02 04:46:00,
2013-04-01 21:51:00,61.6,39.5,29.88,NE,34,0.0,1.0,44,0.00,,,0.00,LWC V2.00 B2112,2013-04-02 04:51:00,
2013-04-01 21:56:00,60.5,40.7,29.88,NNE,32,0.0,0.0,48,0.00,,,0.00,LWC V2.00 B2112,2013-04-02 04:56:00,
2013-04-01 22:01:00,59.5,41.4,29.89,NNE,32,0.0,0.0,51,0.00,,,0.00,LWC V2.00 B2112,2013-04-02 05:01:00,
2013-04-01 22:06:00,58.6,40.5,29.89,NE,34,0.0,0.0,51,0.00,,,0.00,LWC V2.00 B2112,2013-04-02 05:06:00,
2013-04-01 22:11:00,57.0,41.5,29.89,WSW,251,1.0,1.0,56,0.00,,,0.00,LWC V2.00 B2112,2013-04-02 05:11:00,
2013-04-01 22:16:00,56.5,41.0,29.89,WNW,302,0.0,1.0,56,0.00,,,0.00,LWC V2.00 B2112,2013-04-02 05:16:00,
2013-04-01 22:21:00,55.7,41.2,29.89,WNW,302,0.0,0.0,58,0.00,,,0.00,LWC V2.00 B2112,2013-04-02 05:21:00,
2013-04-01 22:26:00,55.0,41.4,29.89,WNW,302,0.0,6.0,60,0.00,,,0.00,LWC V2.00 B2112,2013-04-02 05:26:00,
2013-04-01 22:31:00,54.4,41.2,29.89,WNW,302,0.0,0.0,61,0.00,,,0.00,LWC V2.00 B2112,2013-04-02 05:31:00,
2013-04-01 22:36:00,54.1,40.5,29.89,WNW,302,0.0,0.0,60,0.00,,,0.00,LWC V2.00 B2112,2013-04-02 05:36:00,
2013-04-01 22:41:00,53.6,40.9,29.89,WNW,302,0.0,0.0,62,0.00,,,0.00,LWC V2.00 B2112,2013-04-02 05:41:00,
2013-04-01 22:46:00,53.2,40.5,29.90,WNW,302,0.0,0.0,62,0.00,,,0.00,LWC V2.00 B2112,2013-04-02 05:46:00,
2013-04-01 22:51:00,52.6,40.8,29.90,WNW,302,0.0,2.0,64,0.00,,,0.00,LWC V2.00 B2112,2013-04-02 05:51:00,
2013-04-01 22:56:00,52.3,40.5,29.90,WNW,302,0.0,0.0,64,0.00,,,0.00,LWC V2.00 B2112,2013-04-02 05:56:00,
2013-04-01 23:01:00,52.0,40.6,29.90,WNW,302,0.0,0.0,65,0.00,,,0.00,LWC V2.00 B2112,2013-04-02 06:01:00,
2013-04-01 23:06:00,51.7,40.7,29.90,WNW,302,0.0,0.0,66,0.00,,,0.00,LWC V2.00 B2112,2013-04-02 06:06:00,
2013-04-01 23:11:00,51.4,40.4,29.90,WNW,302,1.0,1.0,66,0.00,,,0.00,LWC V2.00 B2112,2013-04-02 06:11:00,
2013-04-01 23:16:00,51.3,40.7,29.90,WNW,296,0.0,2.0,67,0.00,,,0.00,LWC V2.00 B2112,2013-04-02 06:16:00,
2013-04-01 23:21:00,51.1,40.5,29.90,WNW,296,0.0,0.0,67,0.00,,,0.00,LWC V2.00 B2112,2013-04-02 06:21:00,
2013-04-01 23:26:00,50.8,40.6,29.90,WNW,296,0.0,0.0,68,0.00,,,0.00,LWC V2.00 B2112,2013-04-02 06:26:00,
2013-04-01 23:31:00,50.5,40.3,29.89,WNW,296,0.0,0.0,68,0.00,,,0.00,LWC V2.00 B2112,2013-04-02 06:31:00,
2013-04-01 23:36:00,50.4,40.6,29.89,WNW,296,0.0,0.0,69,0.00,,,0.00,LWC V2.00 B2112,2013-04-02 06:36:00,
2013-04-01 23:41:00,50.2,40.4,29.89,WNW,296,0.0,0.0,69,0.00,,,0.00,LWC V2.00 B2112,2013-04-02 06:41:00,
2013-04-01 23:46:00,49.9,40.1,29.90,WNW,296,0.0,0.0,69,0.00,,,0.00,LWC V2.00 B2112,2013-04-02 06:46:00,
2013-04-01 23:51:00,49.5,40.1,29.90,WNW,296,0.0,0.0,70,0.00,,,0.00,LWC V2.00 B2112,2013-04-02 06:51:00,
2013-04-01 23:56:00,48.9,39.9,29.90,WNW,296,0.0,0.0,71,0.00,,,0.00,LWC V2.00 B2112,2013-04-02 06:56:00,